Time,TemperatureF,DewpointF,PressureIn,WindDirection,WindDirectionDegrees,WindSpeedMPH,WindSpeedGustMPH,Humidity,HourlyPrecipIn,Conditions,Clouds,dailyrainin,SoftwareType,DateUTC
2013-01-07 00:00:00,76.0,74.0,30.12,ESE,110,6.0,7.0,91,-99.99,,,-99.99,,2013-01-07 05:00:00,
2013-01-07 00:22:00,76.0,74.0,30.12,ESE,110,6.0,7.0,91,-99.99,,,-99.99,,2013-01-07 05:22:00,
2013-01-07 00:32:00,76.0,74.0,30.12,ESE,110,6.0,7.0,91,-99.99,,,-99.99,,2013-01-07 05:32:00,
2013-01-07 00:42:00,76.0,74.0,30.12,ESE,110,6.0,7.0,91,-99.99,,,-99.99,,2013-01-07 05:42:00,
2013-01-07 00:52:00,76.0,74.0,30.12,ESE,110,6.0,7.0,91,-99.99,,,-99.99,,2013-01-07 05:52:00,
2013-01-07 01:00:00,76.0,74.0,30.10,ESE,120,11.0,13.0,92,-99.99,,,-99.99,,2013-01-07 06:00:00,
2013-01-07 01:22:00,76.0,74.0,30.10,ESE,120,11.0,13.0,92,-99.99,,,-99.99,,2013-01-07 06:22:00,
2013-01-07 01:32:00,76.0,74.0,30.10,ESE,120,11.0,13.0,92,-99.99,,,-99.99,,2013-01-07 06:32:00,
2013-01-07 01:42:00,76.0,74.0,30.10,ESE,120,11.0,13.0,92,-99.99,,,-99.99,,2013-01-07 06:42:00,
2013-01-07 01:52:00,76.0,74.0,30.10,ESE,120,11.0,13.0,92,-99.99,,,-99.99,,2013-01-07 06:52:00,
2013-01-07 02:00:00,76.0,74.0,30.09,ESE,120,11.0,11.0,91,-99.99,,,-99.99,,2013-01-07 07:00:00,
2013-01-07 02:22:00,76.0,74.0,30.09,ESE,120,11.0,11.0,91,-99.99,,,-99.99,,2013-01-07 07:22:00,
2013-01-07 02:32:00,76.0,74.0,30.09,ESE,120,11.0,11.0,91,-99.99,,,-99.99,,2013-01-07 07:32:00,
2013-01-07 02:42:00,76.0,74.0,30.09,ESE,120,11.0,11.0,91,-99.99,,,-99.99,,2013-01-07 07:42:00,
2013-01-07 02:52:00,76.0,74.0,30.09,ESE,120,11.0,11.0,91,-99.99,,,-99.99,,2013-01-07 07:52:00,
2013-01-07 03:00:00,76.0,72.0,30.08,SE,130,13.0,13.0,88,-99.99,,,-99.99,,2013-01-07 08:00:00,
2013-01-07 03:22:00,76.0,72.0,30.08,SE,130,13.0,13.0,88,-99.99,,,-99.99,,2013-01-07 08:22:00,
2013-01-07 03:32:00,76.0,72.0,30.08,SE,130,13.0,13.0,88,-99.99,,,-99.99,,2013-01-07 08:32:00,
2013-01-07 03:42:00,76.0,72.0,30.08,SE,130,13.0,13.0,88,-99.99,,,-99.99,,2013-01-07 08:42:00,
2013-01-07 03:52:00,76.0,72.0,30.08,SE,130,13.0,13.0,88,-99.99,,,-99.99,,2013-01-07 08:52:00,
2013-01-07 04:00:00,76.0,72.0,30.08,ESE,120,9.0,9.0,87,-99.99,,,-99.99,,2013-01-07 09:00:00,
2013-01-07 04:22:00,76.0,72.0,30.08,ESE,120,9.0,9.0,87,-99.99,,,-99.99,,2013-01-07 09:22:00,
2013-01-07 04:32:00,76.0,72.0,30.08,ESE,120,9.0,9.0,87,-99.99,,,-99.99,,2013-01-07 09:32:00,
2013-01-07 04:42:00,76.0,72.0,30.08,ESE,120,9.0,9.0,87,-99.99,,,-99.99,,2013-01-07 09:42:00,
2013-01-07 04:52:00,76.0,72.0,30.08,ESE,120,9.0,9.0,87,-99.99,,,-99.99,,2013-01-07 09:52:00,
2013-01-07 05:00:00,76.0,72.0,30.09,SE,130,10.0,11.0,88,-99.99,,,-99.99,,2013-01-07 10:00:00,
2013-01-07 05:22:00,76.0,72.0,30.09,SE,130,10.0,11.0,88,-99.99,,,-99.99,,2013-01-07 10:22:00,
2013-01-07 05:32:00,76.0,72.0,30.09,SE,130,10.0,11.0,88,-99.99,,,-99.99,,2013-01-07 10:32:00,
2013-01-07 05:42:00,76.0,72.0,30.09,SE,130,10.0,11.0,88,-99.99,,,-99.99,,2013-01-07 10:42:00,
2013-01-07 05:52:00,76.0,72.0,30.09,SE,130,10.0,11.0,88,-99.99,,,-99.99,,2013-01-07 10:52:00,
2013-01-07 06:00:00,76.0,72.0,30.09,SE,140,11.0,13.0,86,-99.99,,,-99.99,,2013-01-07 11:00:00,
2013-01-07 06:22:00,76.0,72.0,30.09,SE,140,11.0,13.0,86,-99.99,,,-99.99,,2013-01-07 11:22:00,
2013-01-07 06:32:00,76.0,72.0,30.09,SE,140,11.0,13.0,86,-99.99,,,-99.99,,2013-01-07 11:32:00,
2013-01-07 06:42:00,76.0,72.0,30.09,SE,140,11.0,13.0,86,-99.99,,,-99.99,,2013-01-07 11:42:00,
2013-01-07 06:52:00,76.0,72.0,30.09,SE,140,11.0,13.0,86,-99.99,,,-99.99,,2013-01-07 11:52:00,
2013-01-07 07:00:00,76.0,71.0,30.10,SE,140,13.0,13.0,84,-99.99,,,-99.99,,2013-01-07 12:00:00,
2013-01-07 07:22:00,76.0,71.0,30.10,SE,140,13.0,13.0,84,-99.99,,,-99.99,,2013-01-07 12:22:00,
2013-01-07 07:32:00,76.0,71.0,30.10,SE,140,13.0,13.0,84,-99.99,,,-99.99,,2013-01-07 12:32:00,
2013-01-07 07:42:00,76.0,71.0,30.10,SE,140,13.0,13.0,84,-99.99,,,-99.99,,2013-01-07 12:42:00,
2013-01-07 07:52:00,76.0,71.0,30.10,SE,140,13.0,13.0,84,-99.99,,,-99.99,,2013-01-07 12:52:00,
2013-01-07 08:00:00,76.0,71.0,30.12,SE,130,10.0,11.0,83,-99.99,,,-99.99,,2013-01-07 13:00:00,
2013-01-07 08:22:00,76.0,71.0,30.12,SE,130,10.0,11.0,83,-99.99,,,-99.99,,2013-01-07 13:22:00,
2013-01-07 08:32:00,76.0,71.0,30.12,SE,130,10.0,11.0,83,-99.99,,,-99.99,,2013-01-07 13:32:00,
2013-01-07 08:42:00,76.0,71.0,30.12,SE,130,10.0,11.0,83,-99.99,,,-99.99,,2013-01-07 13:42:00,
2013-01-07 08:52:00,76.0,71.0,30.12,SE,130,10.0,11.0,83,-99.99,,,-99.99,,2013-01-07 13:52:00,
2013-01-07 09:00:00,77.0,69.0,30.14,ESE,110,7.0,7.0,78,-99.99,,,-99.99,,2013-01-07 14:00:00,
2013-01-07 09:22:00,77.0,69.0,30.14,ESE,110,7.0,7.0,78,-99.99,,,-99.99,,2013-01-07 14:22:00,
2013-01-07 09:32:00,77.0,69.0,30.14,ESE,110,7.0,7.0,78,-99.99,,,-99.99,,2013-01-07 14:32:00,
2013-01-07 09:42:00,77.0,69.0,30.14,ESE,110,7.0,7.0,78,-99.99,,,-99.99,,2013-01-07 14:42:00,
2013-01-07 09:53:00,77.0,69.0,30.14,ESE,110,7.0,7.0,78,-99.99,,,-99.99,,2013-01-07 14:53:00,
2013-01-07 10:00:00,77.0,71.0,30.15,ESE,120,9.0,9.0,82,-99.99,,,-99.99,,2013-01-07 15:00:00,
2013-01-07 10:22:00,77.0,71.0,30.15,ESE,120,9.0,9.0,82,-99.99,,,-99.99,,2013-01-07 15:22:00,
2013-01-07 10:32:00,77.0,71.0,30.15,ESE,120,9.0,9.0,82,-99.99,,,-99.99,,2013-01-07 15:32:00,
2013-01-07 10:42:00,77.0,71.0,30.15,ESE,120,9.0,9.0,82,-99.99,,,-99.99,,2013-01-07 15:42:00,
2013-01-07 10:52:00,77.0,71.0,30.15,ESE,120,9.0,9.0,82,-99.99,,,-99.99,,2013-01-07 15:52:00,
2013-01-07 11:00:00,78.0,72.0,30.14,ESE,110,9.0,11.0,82,-99.99,,,-99.99,,2013-01-07 16:00:00,
2013-01-07 11:22:00,78.0,72.0,30.14,ESE,110,9.0,11.0,82,-99.99,,,-99.99,,2013-01-07 16:22:00,
2013-01-07 11:32:00,78.0,72.0,30.14,ESE,110,9.0,11.0,82,-99.99,,,-99.99,,2013-01-07 16:32:00,
2013-01-07 11:42:00,78.0,72.0,30.14,ESE,110,9.0,11.0,82,-99.99,,,-99.99,,2013-01-07 16:42:00,
2013-01-07 11:52:00,78.0,72.0,30.14,ESE,110,9.0,11.0,82,-99.99,,,-99.99,,2013-01-07 16:52:00,
2013-01-07 12:00:00,77.0,71.0,30.10,East,90,11.0,13.0,80,-99.99,,,-99.99,,2013-01-07 17:00:00,
2013-01-07 12:22:00,77.0,71.0,30.10,East,90,11.0,13.0,80,-99.99,,,-99.99,,2013-01-07 17:22:00,
2013-01-07 12:32:00,77.0,71.0,30.10,East,90,11.0,13.0,80,-99.99,,,-99.99,,2013-01-07 17:32:00,
2013-01-07 12:42:00,77.0,71.0,30.10,East,90,11.0,13.0,80,-99.99,,,-99.99,,2013-01-07 17:42:00,
2013-01-07 12:52:00,77.0,71.0,30.10,East,90,11.0,13.0,80,-99.99,,,-99.99,,2013-01-07 17:52:00,
2013-01-07 13:00:00,77.0,70.0,30.09,East,80,11.0,13.0,79,-99.99,,,-99.99,,2013-01-07 18:00:00,
2013-01-07 13:22:00,77.0,70.0,30.09,East,80,11.0,13.0,79,-99.99,,,-99.99,,2013-01-07 18:22:00,
2013-01-07 13:32:00,77.0,70.0,30.09,East,80,11.0,13.0,79,-99.99,,,-99.99,,2013-01-07 18:32:00,
2013-01-07 13:42:00,77.0,70.0,30.09,East,80,11.0,13.0,79,-99.99,,,-99.99,,2013-01-07 18:42:00,
2013-01-07 13:52:00,77.0,70.0,30.09,East,80,11.0,13.0,79,-99.99,,,-99.99,,2013-01-07 18:52:00,
2013-01-07 14:00:00,78.0,70.0,30.06,East,80,13.0,14.0,78,-99.99,,,-99.99,,2013-01-07 19:00:00,
2013-01-07 14:22:00,78.0,70.0,30.06,East,80,13.0,14.0,78,-99.99,,,-99.99,,2013-01-07 19:22:00,
2013-01-07 14:32:00,78.0,70.0,30.06,East,80,13.0,14.0,78,-99.99,,,-99.99,,2013-01-07 19:32:00,
2013-01-07 14:42:00,78.0,70.0,30.06,East,80,13.0,14.0,78,-99.99,,,-99.99,,2013-01-07 19:42:00,
2013-01-07 14:52:00,78.0,70.0,30.06,East,80,13.0,14.0,78,-99.99,,,-99.99,,2013-01-07 19:52:00,
2013-01-07 15:00:00,78.0,71.0,30.07,East,80,13.0,14.0,79,-99.99,,,-99.99,,2013-01-07 20:00:00,
2013-01-07 15:22:00,78.0,71.0,30.07,East,80,13.0,14.0,79,-99.99,,,-99.99,,2013-01-07 20:22:00,
2013-01-07 15:32:00,78.0,71.0,30.07,East,80,13.0,14.0,79,-99.99,,,-99.99,,2013-01-07 20:32:00,
2013-01-07 15:42:00,78.0,71.0,30.07,East,80,13.0,14.0,79,-99.99,,,-99.99,,2013-01-07 20:42:00,
2013-01-07 15:52:00,78.0,71.0,30.07,East,80,13.0,14.0,79,-99.99,,,-99.99,,2013-01-07 20:52:00,
2013-01-07 16:00:00,78.0,72.0,30.07,East,80,15.0,15.0,81,-99.99,,,-99.99,,2013-01-07 21:00:00,
2013-01-07 16:22:00,78.0,72.0,30.07,East,80,15.0,15.0,81,-99.99,,,-99.99,,2013-01-07 21:22:00,
2013-01-07 16:32:00,78.0,72.0,30.07,East,80,15.0,15.0,81,-99.99,,,-99.99,,2013-01-07 21:32:00,
2013-01-07 16:42:00,78.0,72.0,30.07,East,80,15.0,15.0,81,-99.99,,,-99.99,,2013-01-07 21:42:00,
2013-01-07 16:52:00,78.0,72.0,30.07,East,80,15.0,15.0,81,-99.99,,,-99.99,,2013-01-07 21:52:00,
2013-01-07 17:00:00,77.0,71.0,30.07,East,80,15.0,16.0,83,-99.99,,,-99.99,,2013-01-07 22:00:00,
2013-01-07 17:22:00,77.0,71.0,30.07,East,80,15.0,16.0,83,-99.99,,,-99.99,,2013-01-07 22:22:00,
2013-01-07 17:32:00,77.0,71.0,30.07,East,80,15.0,16.0,83,-99.99,,,-99.99,,2013-01-07 22:32:00,
2013-01-07 17:42:00,77.0,71.0,30.07,East,80,15.0,16.0,83,-99.99,,,-99.99,,2013-01-07 22:42:00,
2013-01-07 17:52:00,77.0,71.0,30.07,East,80,15.0,16.0,83,-99.99,,,-99.99,,2013-01-07 22:52:00,
2013-01-07 18:00:00,76.0,74.0,30.09,ENE,70,14.0,15.0,93,-99.99,,,-99.99,,2013-01-07 23:00:00,
2013-01-07 18:22:00,76.0,74.0,30.09,ENE,70,14.0,15.0,93,-99.99,,,-99.99,,2013-01-07 23:22:00,
2013-01-07 18:32:00,76.0,74.0,30.09,ENE,70,14.0,15.0,93,-99.99,,,-99.99,,2013-01-07 23:32:00,
2013-01-07 18:42:00,76.0,74.0,30.09,ENE,70,14.0,15.0,93,-99.99,,,-99.99,,2013-01-07 23:42:00,
2013-01-07 18:52:00,76.0,74.0,30.09,ENE,70,14.0,15.0,93,-99.99,,,-99.99,,2013-01-07 23:52:00,
2013-01-07 19:00:00,76.0,72.0,30.10,ENE,70,16.0,17.0,88,-99.99,,,-99.99,,2013-01-08 00:00:00,
2013-01-07 19:22:00,76.0,72.0,30.10,ENE,70,16.0,17.0,88,-99.99,,,-99.99,,2013-01-08 00:22:00,
2013-01-07 19:32:00,76.0,72.0,30.10,ENE,70,16.0,17.0,88,-99.99,,,-99.99,,2013-01-08 00:32:00,
2013-01-07 19:42:00,76.0,72.0,30.10,ENE,70,16.0,17.0,88,-99.99,,,-99.99,,2013-01-08 00:42:00,
2013-01-07 19:52:00,76.0,72.0,30.10,ENE,70,16.0,17.0,88,-99.99,,,-99.99,,2013-01-08 00:52:00,
2013-01-07 20:00:00,76.0,74.0,30.11,ENE,70,18.0,20.0,94,-99.99,,,-99.99,,2013-01-08 01:00:00,
2013-01-07 20:22:00,76.0,74.0,30.11,ENE,70,18.0,20.0,94,-99.99,,,-99.99,,2013-01-08 01:22:00,
2013-01-07 20:32:00,76.0,74.0,30.11,ENE,70,18.0,20.0,94,-99.99,,,-99.99,,2013-01-08 01:32:00,
2013-01-07 20:42:00,76.0,74.0,30.11,ENE,70,18.0,20.0,94,-99.99,,,-99.99,,2013-01-08 01:42:00,
2013-01-07 20:52:00,76.0,74.0,30.11,ENE,70,18.0,20.0,94,-99.99,,,-99.99,,2013-01-08 01:52:00,
2013-01-07 21:00:00,75.0,74.0,30.11,NE,50,15.0,17.0,96,-99.99,,,-99.99,,2013-01-08 02:00:00,
2013-01-07 21:22:00,75.0,74.0,30.11,NE,50,15.0,17.0,96,-99.99,,,-99.99,,2013-01-08 02:22:00,
2013-01-07 21:32:00,75.0,74.0,30.11,NE,50,15.0,17.0,96,-99.99,,,-99.99,,2013-01-08 02:32:00,
2013-01-07 21:42:00,75.0,74.0,30.11,NE,50,15.0,17.0,96,-99.99,,,-99.99,,2013-01-08 02:42:00,
2013-01-07 21:52:00,75.0,74.0,30.11,NE,50,15.0,17.0,96,-99.99,,,-99.99,,2013-01-08 02:52:00,
2013-01-07 22:00:00,76.0,74.0,30.11,ENE,60,20.0,21.0,96,-99.99,,,-99.99,,2013-01-08 03:00:00,
2013-01-07 22:22:00,76.0,74.0,30.11,ENE,60,20.0,21.0,96,-99.99,,,-99.99,,2013-01-08 03:22:00,
2013-01-07 22:32:00,76.0,74.0,30.11,ENE,60,20.0,21.0,96,-99.99,,,-99.99,,2013-01-08 03:32:00,
2013-01-07 22:42:00,76.0,74.0,30.11,ENE,60,20.0,21.0,96,-99.99,,,-99.99,,2013-01-08 03:42:00,
2013-01-07 22:52:00,76.0,74.0,30.11,ENE,60,20.0,21.0,96,-99.99,,,-99.99,,2013-01-08 03:52:00,
2013-01-07 23:22:00,75.0,74.0,30.10,ENE,60,20.0,21.0,95,-99.99,,,-99.99,,2013-01-08 04:22:00,
2013-01-07 23:32:00,75.0,74.0,30.10,ENE,60,20.0,21.0,95,-99.99,,,-99.99,,2013-01-08 04:32:00,
2013-01-07 23:42:00,75.0,74.0,30.10,ENE,60,20.0,21.0,95,-99.99,,,-99.99,,2013-01-08 04:42:00,
2013-01-07 23:52:00,75.0,74.0,30.10,ENE,60,20.0,21.0,95,-99.99,,,-99.99,,2013-01-08 04:52:00,